Details for EasyJet at EGAA




Go Back


Latest METAR
Local Time

EGAA 150450Z 20008KT 170V230 9999 BKN008 BKN013 17/15 Q1009
15/08/2018, 06:20:19

Description
Results
EasyJet Logo
Number of Pilots based at EGAA
1 Pilots Based here
Number of EasyJet Flights Departed from EGAA
10 Flights Departed
Number of EasyJet Flights Arrived at EGAA
11 Flights Arrived
Number of EasyJet Schedules Departing from EGAA
130 Schedules
Number of EasyJet Schedules Arriving at EGAA
136 Schedules
Number of EasyJet Schedules Departing from EGAA availible today
41 Schedules Today
Number of EasyJet Schedules Arriving at EGAA availible today
41 Schedules Today
Average Landing Rate at EGAA
-230 fpm
EasyJet Average Landing Rate at EGAA
-175 fpm
Total Fuel Purchased at EGAA by EasyJet
22,299.51 kgs / 49,161.50 lbs

Pilots Based at EGAA


Pilot ID
Pilot Name
Pilot Rank
No. of Flights
No. of Flying Hours
Dean Cullen
159
194.15
Content